SCP
0 0 0 0 0 0 0 0 0 0 0 0 0 0 0 0 0 0 0 0 0 0 0 0 0 0 0 0 -0 0 0 0 0 0 0 0 0 0 0 0 0 0 0 0 0 0 0
0 0 0 0 0 0 0 0 0 0 0 0 0 0 0 0 0 0 0 0 0 0 0 0 0 0 0 0 0 0 0 0 0 0 0 0 0 0 0 0 0 0 0 0 0 0 0
0 0 0 0 0 0 0 0 0 0 0 0 0 0 0 0 0 0 0 0 0 0 0 0 0 0 0 0 0 0 0 0 0 0 0 0 0 0 0 0 0 0 0 0 0 0 0
0 0 0 0 0 0 0 0 0 0 0 0 0 0 0 0 0 0 0 0 0 0 0 0 0 0 0 0 0 0 0 0 0 0 0 0 0 0 0 0 0 0 0 0 0 0 0
0 0 0 0 0 0 0 0 0 0 0 0 0 0 0 0 0 0 0 0 0 0 0 0 0 0 0 0 0 0 0 0 0 0 0 0 0 0 0 0 0 0 0 0 0 0 0
0 0 0 0 0 0 0 0 0 0 0 0 0 0 0 0 0 0 0 0 0 0 0 0 0 0 0 0 0 0 0 0 0 0 0 0 0 0 0 0 0 0 0 -0 -0 0 0
0 0 0 0 0 -0 0 0 0 0 0 0 0 0 0 0 0 0 0 0 0 0 0 0 0 0 0 0 0 0 0 0 0 0 0 0 0 -0 -0 -0 -0 0 -0 -0 -0 0 0
0 0 0 0 0 0 0 0 0 0 0 0 0 0 0 0 0 0 0 0 0 0 0 0 0 0 0 0 0 0 0 0 0 0 0 0 -0 -0 0 -0 -0 -0 0 0 0 0 0
0 0 0 0 0 0 -0 0 0 0 0 0 0 0 0 0 0 0 0 0 0 0 0 0 0 0 0 0 0 0 0 0 0 0 0 0 0 0 0 0 0 0 0 0 0 0 0
0 0 0 0 0 0 -0 0 0 0 0 0 0 0 0 0 0 0 0 0 0 0 0 0 0 0 0 0 0 0 0 0 0 0 0 0 0 0 0 0 0 0 0 0 -0 0 0
0 0 0 0 0 0 -0 -0 0 0 0 0 0 0 0 0 0 0 0 0 0 0 0 0 0 0 0 0 0 0 0 0 0 0 0 0 0 0 0 0 0 0 -0 -0 0 0 0
0 0 0 0 0 0 0 0 0 0 0 0 0 0 0 0 0 0 0 0 0 0 0 0 0 0 0 0 0 0 0 0 0 0 0 0 0 0 0 0 0 0 0 0 0 0 0
0 0 0 0 0 0 0 0 0 0 0 0 0 0 0 0 0 0 0 0 0 0 0 0 0 0 0 0 0 0 0 0 0 0 0 0 0 0 0 0 0 0 0 0 0 0 0
0 0 0 -0 0 0 0 0 0 0 0 0 0 0 0 0 0 0 0 0 0 0 0 0 0 0 0 0 0 0 0 0 0 0 0 0 0 0 0 0 0 0 0 0 0 0 0
0 0 0 -0 -0 0 0 -0 0 0 0 0 0 0 -0 0 0 0 0 0 0 0 0 0 0 0 0 0 0 0 0 0 -0 0 0 0 0 0 0 0 0 0 0 0 0 0 0
0 0 0 -0 -0 0 0 -0 0 0 0 -0 0 0 -0 0 0 0 0 0 0 0 0 0 0 0 0 0 0 0 0 0 0 0 0 0 0 0 0 0 0 0 0 0 0 0 0
0 0 0 -0 0 0 0 -0 0 0 0 0 0 0 0 0 0 0 0 0 0 0 0 0 0 0 0 0 0 0 0 0 0 0 0 0 0 0 0 0 0 0 0 0 0 0 0
0 0 0 -0 -0 0 0 0 0 0 0 0 0 0 0 0 0 0 0 0 0 0 0 0 0 0 0 0 0 0 0 0 0 0 0 0 0 0 0 0 0 0 0 0 0 0 0
0 0 0 -0 -0 -0 0 0 0 0 0 0 0 0 0 0 0 0 0 0 0 0 0 0 0 0 0 0 0 0 0 0 0 0 0 0 0 0 0 0 0 0 0 0 0 0 0
0 0 0 -0 -0 0 -0 0 0 0 0 0 0 0 0 0 0 0 0 0 0 0 0 0 0 0 0 0 0 0 0 0 0 0 0 0 0 0 0 0 0 0 0 0 0 0 0
0 0 0 -0 -0 0 -0 0 0 0 0 0 0 0 0 0 0 0 0 0 0 0 0 0 0 0 0 0 0 0 0 0 0 0 0 0 0 0 0 0 0 0 0 0 0 0 0
0 0 -0 -0 -0 -0 -0 -0 0 0 0 0 0 0 0 0 0 0 0 0 0 0 0 0 0 0 0 0 0 0 0 0 0 0 0 0 0 0 0 0 0 0 0 -0 0 0 0
0 0 0 0 -0 -0 -0 0 0 0 0 0 0 0 0 0 0 0 0 0 0 0 0 0 0 0 0 0 0 0 0 0 0 0 0 0 0 0 0 0 0 0 0 0 0 0 0
0 0 0 0 0 -0 -0 0 0 0 0 0 0 0 0 0 0 0 0 0 0 0 0 0 0 0 0 0 0 0 0 0 0 0 0 0 0 0 0 0 0 0 0 -0 -0 0 0
0 0 0 0 0 0 -0 0 0 0 0 -0 0 0 0 0 0 0 0 0 0 0 0 0 0 0 0 0 0 0 0 0 0 0 0 0 0 0 0 0 0 0 0 -0 -0 0 0
0 0 0 0 -0 -0 0 0 0 0 0 -0 -0 0 0 0 0 0 0 0 0 0 0 0 0 0 0 0 0 0 0 0 0 0 0 0 0 0 0 0 0 -0 0 -0 -0 0 0
0 0 0 -0 -0 -0 -0 0 0 0 0 -0 0 0 0 0 0 0 0 0 0 0 0 0 0 0 0 0 0 0 0 0 0 0 0 0 0 0 0 0 0 0 -0 0 0 0 -0
0 0 -0 -0 -0 0 0 0 0 0 0 -0 0 0 0 0 0 0 0 0 0 0 0 0 0 0 0 0 0 0 0 0 0 0 0 0 0 0 0 0 -0 0 0 0 0 0 -0
0 -0 -0 -0 0 0 0 0 0 0 -0 -0 0 0 0 0 0 0 0 0 0 0 0 0 0 0 0 0 0 0 0 0 0 0 0 0 0 0 0 0 0 0 0 0 0 -0 0
Wind_Speed_500mb
44 33 35 38 40 36 39 36 34 32 30 34 34 35 36 36 36 40 37 34 32 33 34 30 29 32 27 20 39 15 12 8 9 20 26 27 23 17 9 8 6 10 13 25 17 10 35
44 41 40 38 39 40 36 38 35 34 33 32 33 34 34 34 34 37 37 34 31 30 32 32 27 31 29 17 19 18 33 27 16 21 28 31 15 29 7 7 8 8 20 23 20 28 24
49 49 42 42 37 31 37 39 39 36 36 35 33 35 33 32 31 34 34 31 30 28 31 30 29 31 37 52 22 16 22 21 16 8 18 22 31 12 6 9 6 14 8 8 5 15 10
40 45 46 45 42 35 34 41 40 39 37 37 35 33 31 30 29 30 31 27 28 27 30 29 27 28 28 25 33 40 25 24 18 19 15 16 15 20 10 13 9 3 9 7 4 4 3
43 43 45 53 50 37 36 39 41 41 39 37 37 32 29 26 27 27 26 24 25 26 27 26 21 17 29 16 31 34 40 27 15 17 18 18 10 13 7 8 9 15 3 4 2 37 5
40 41 44 59 62 50 33 38 41 40 39 37 38 34 26 24 24 24 21 19 20 22 22 19 20 13 24 5 7 16 40 30 22 15 7 12 11 4 6 8 8 5 0 3 6 16 39
40 39 41 43 65 47 40 30 39 40 39 38 37 34 25 23 21 20 14 9 7 8 22 22 10 16 13 13 6 9 28 34 25 7 3 2 6 15 14 11 9 3 6 5 4 14 22
41 38 38 42 60 58 46 26 43 38 38 39 37 33 26 22 19 16 10 8 8 9 19 34 52 58 53 47 17 6 23 26 14 9 4 10 14 12 10 9 10 8 8 8 18 26 25
45 42 35 39 37 65 56 38 35 39 39 40 35 33 29 21 20 16 14 7 6 7 9 22 37 45 43 18 15 17 23 19 11 12 10 12 13 12 7 10 9 10 8 19 16 35 34
50 45 37 41 42 48 57 45 40 35 39 33 32 33 30 18 12 14 13 11 6 8 6 12 12 17 25 18 12 34 14 17 4 19 14 10 12 13 8 14 16 11 12 26 41 18 11
51 46 40 40 43 43 53 53 35 38 37 36 34 33 29 20 8 17 15 12 7 5 2 8 11 11 24 21 4 16 31 19 15 11 13 14 5 5 6 17 16 17 33 36 29 10 14
53 47 41 42 43 45 46 59 38 33 36 34 35 34 33 26 25 17 18 16 9 8 13 7 17 14 15 14 6 10 27 22 12 7 1 14 5 7 12 6 7 10 13 10 9 7 7
54 48 41 43 42 41 42 58 40 35 37 36 36 36 36 31 18 23 14 21 8 7 8 10 11 12 9 10 7 4 13 13 10 10 5 7 11 8 12 3 9 11 12 5 7 8 4
56 53 45 43 44 42 44 58 31 29 39 39 39 43 40 44 26 23 19 5 8 10 12 4 8 17 13 10 10 12 13 10 3 9 6 7 9 9 7 11 13 4 11 10 10 7 6
61 55 47 42 44 42 45 50 47 27 37 39 41 45 53 36 35 27 16 4 13 12 7 13 9 10 7 11 10 9 8 17 14 14 9 7 7 4 3 7 9 4 3 7 13 6 8
62 55 46 43 42 43 42 52 55 27 37 39 37 37 51 24 43 31 6 11 9 10 11 5 10 9 15 12 8 10 13 10 7 12 8 9 5 5 5 12 14 9 5 4 6 9 3
61 55 44 44 45 40 42 42 52 30 38 36 27 12 9 36 48 19 9 12 11 32 19 10 8 11 11 14 11 7 9 3 3 6 12 7 8 8 9 8 6 7 6 10 10 7 9
63 54 46 44 44 41 40 49 47 36 43 36 14 7 19 51 15 8 7 11 7 13 11 8 3 7 13 15 9 7 9 4 1 5 8 2 10 7 5 8 9 9 6 7 9 5 6
61 55 47 46 45 42 39 46 21 35 49 42 11 14 39 51 9 7 8 10 7 7 9 8 4 5 6 11 13 8 6 5 4 5 12 7 5 7 7 11 11 13 8 8 10 7 4
61 54 48 46 44 40 41 54 9 34 50 43 11 8 17 31 10 6 9 9 11 15 13 14 8 7 10 8 11 11 7 6 5 9 16 12 6 11 13 11 9 9 9 7 9 7 10
59 52 46 48 44 45 43 64 46 30 55 44 14 7 14 11 19 7 8 12 11 7 11 7 5 9 13 10 8 9 6 7 11 4 8 9 8 9 14 14 13 8 8 8 9 8 4
55 49 47 47 43 41 42 58 49 23 61 50 14 8 4 6 31 20 9 13 18 8 5 6 7 2 14 15 15 15 16 7 8 10 7 7 4 7 14 9 20 15 10 20 14 16 18
52 45 47 46 43 44 42 57 56 25 70 40 43 28 12 9 12 13 10 11 18 13 6 2 10 10 11 4 29 36 23 20 15 12 6 7 11 8 5 1 8 10 5 6 8 6 17
49 45 48 44 42 36 37 51 41 39 69 56 32 17 8 7 16 17 12 13 11 14 10 3 6 10 15 64 70 58 59 48 46 21 9 10 9 6 7 6 4 5 6 18 22 9 15
44 46 44 39 34 38 44 60 36 40 67 64 43 5 7 6 17 13 16 12 13 15 6 5 7 59 31 32 14 13 13 14 12 14 15 12 10 8 9 5 4 7 5 13 11 1 7
42 42 39 37 39 38 47 47 38 48 60 59 66 45 14 8 8 6 10 14 9 8 5 3 12 27 10 8 9 8 6 8 3 5 9 16 15 9 6 10 12 12 11 33 24 2 25
40 39 37 37 35 37 49 47 47 58 59 55 59 52 19 11 8 9 9 14 14 10 9 2 8 8 7 6 8 6 3 10 7 12 4 7 8 9 5 5 10 8 29 21 9 11 55
35 36 34 35 32 45 48 39 45 58 55 52 63 53 24 9 11 8 10 11 15 17 11 13 11 6 8 10 7 6 7 7 7 8 10 9 9 5 6 8 5 13 14 13 12 30 59
36 32 33 30 37 38 41 33 55 56 50 54 53 30 19 19 6 11 19 17 14 20 39 10 16 8 9 9 4 7 6 5 7 4 7 2 10 11 5 7 9 8 4 22 43 65 57
Wind_Direction_500mb
277 279 268 265 271 279 292 302 302 295 286 281 279 277 277 277 278 281 280 282 282 286 291 291 297 301 303 272 250 238 262 313 221 223 222 216 211 183 194 192 193 211 260 272 305 122 142
272 275 273 264 271 264 278 292 300 300 296 286 283 278 279 278 278 278 279 281 281 282 286 288 291 293 294 269 265 254 243 256 245 248 238 220 222 215 216 232 175 237 285 288 162 134 137
262 269 272 272 263 265 264 279 290 299 298 294 285 278 278 278 278 277 276 277 278 279 278 281 287 289 280 256 266 233 204 205 225 263 245 236 223 192 170 293 298 293 305 345 79 137 78
276 277 265 269 269 265 259 265 280 291 298 298 292 280 277 277 278 275 273 275 275 274 273 276 283 290 263 269 251 240 199 202 228 264 263 254 245 245 239 305 341 340 49 23 28 21 342
286 272 263 262 261 269 258 257 268 281 294 298 296 284 278 275 276 274 273 272 272 269 270 273 282 271 268 255 258 220 208 210 240 252 260 253 264 247 250 94 359 12 235 273 155 4 141
291 279 281 255 262 254 257 245 259 270 284 296 298 292 277 271 272 274 276 274 271 267 261 266 248 283 257 244 304 226 213 226 232 248 290 207 185 134 56 83 237 242 323 302 13 19 70
282 283 273 272 256 268 270 244 250 258 274 289 296 294 277 268 268 276 276 286 246 257 236 220 231 239 284 310 165 183 200 200 219 223 166 30 92 222 223 195 173 211 222 69 108 158 58
281 275 278 283 255 267 257 253 242 251 264 281 293 295 279 263 262 264 262 167 73 333 294 262 250 259 262 274 298 189 171 172 162 176 98 19 242 226 193 181 206 217 260 102 76 86 92
276 276 273 274 272 264 269 270 242 245 253 271 286 294 283 263 255 252 220 157 147 339 274 281 232 236 239 230 226 231 178 155 129 163 164 181 220 119 184 257 241 243 203 179 121 88 117
273 273 262 268 275 258 267 262 233 240 246 264 284 293 287 258 256 220 177 146 132 356 18 259 208 238 200 208 253 225 204 174 120 188 159 230 251 236 237 245 170 261 143 132 145 142 165
270 269 261 263 271 276 266 251 274 235 234 258 278 290 283 238 219 198 166 152 140 97 346 189 165 181 176 186 316 191 180 168 166 183 125 234 199 144 238 243 150 225 146 156 170 130 112
269 266 263 260 267 278 261 262 255 227 228 249 268 284 278 257 233 170 166 172 135 62 250 218 149 164 127 201 296 127 176 190 213 155 210 232 277 188 226 313 181 116 110 56 54 75 52
260 260 261 256 262 266 265 256 239 226 230 243 261 276 274 244 204 185 157 159 74 178 300 198 181 138 131 154 237 151 146 159 146 126 263 322 256 245 166 176 12 74 67 3 359 31 194
249 253 258 250 258 262 272 255 244 228 224 240 258 271 266 241 181 185 162 84 190 219 228 143 131 110 157 154 243 183 122 153 110 102 123 175 326 184 184 177 175 87 138 154 206 181 207
244 248 255 249 252 257 267 260 249 239 213 237 254 269 269 220 198 186 178 161 213 215 252 140 63 103 194 216 150 125 137 178 190 172 171 168 290 333 225 112 115 170 45 158 108 59 85
239 244 250 246 248 252 270 265 247 217 216 228 250 277 262 205 190 180 123 240 237 227 323 190 146 174 166 198 139 108 163 191 187 186 155 198 88 358 22 68 32 116 144 59 24 137 158
235 240 246 243 243 249 259 250 251 208 210 220 244 265 232 183 176 184 184 236 267 278 265 207 195 159 166 159 138 132 199 35 230 100 152 132 106 309 38 21 174 18 28 53 107 108 149
231 235 241 238 241 245 256 246 263 195 198 209 207 234 186 168 152 195 194 208 268 281 305 260 183 135 159 158 83 112 138 165 224 160 103 67 116 85 107 353 36 91 96 110 112 192 63
226 231 235 237 237 239 245 234 229 205 197 197 214 231 172 170 162 218 266 249 265 308 306 319 267 182 145 139 100 98 114 24 146 96 159 178 42 91 2 353 3 59 344 100 100 85 170
222 226 231 233 239 236 249 233 288 202 197 195 220 193 164 215 247 189 186 213 205 257 255 261 256 98 100 80 26 149 123 29 64 96 106 91 92 149 175 193 135 86 12 29 101 105 162
218 222 226 229 233 228 247 219 238 211 195 198 231 241 172 187 231 236 223 195 177 241 226 240 282 137 148 115 85 111 122 108 39 76 67 94 88 83 37 83 86 91 94 49 81 123 120
213 221 222 226 232 229 240 247 246 231 193 201 207 231 194 217 183 195 214 217 177 195 273 276 174 66 108 146 165 176 132 117 167 27 67 28 110 59 42 56 95 94 81 85 65 102 74
211 220 222 227 225 232 239 237 236 237 193 201 219 258 251 221 156 167 212 197 204 154 209 265 174 98 76 157 134 132 104 115 133 129 110 94 132 103 131 291 126 40 186 100 100 74 135
210 215 222 225 225 229 240 232 225 219 202 206 210 269 225 256 191 194 189 211 183 190 157 35 66 100 121 115 103 91 84 77 68 39 104 114 91 76 132 40 49 277 43 121 101 52 103
207 212 220 223 227 235 242 215 240 218 205 216 214 268 343 286 199 189 229 189 104 121 68 101 88 129 127 120 76 60 1 37 28 31 36 81 105 73 116 96 287 61 168 151 135 351 128
207 213 217 219 218 236 236 231 231 203 200 217 225 235 295 285 237 236 198 179 148 118 36 80 109 159 153 74 79 106 157 167 129 69 49 67 69 104 100 120 198 231 179 140 101 343 175
208 213 214 216 222 234 228 232 229 191 202 213 222 225 257 261 280 210 202 173 154 116 113 134 133 106 91 69 74 114 158 172 141 142 130 39 30 117 105 121 290 247 152 146 86 238 165
206 213 213 219 234 222 217 225 180 187 203 207 215 218 235 271 322 225 209 170 153 151 135 163 93 13 53 72 114 178 117 198 95 149 164 148 128 145 92 85 277 137 142 152 167 127 159
206 213 212 228 232 220 212 199 178 196 203 209 214 220 227 236 239 89 100 132 146 153 139 132 133 118 148 94 76 118 95 82 142 154 45 96 174 151 148 198 331 317 148 133 152 152 155
Wind_Speed_850mb
44 33 35 38 40 36 39 36 34 32 30 34 34 35 36 36 36 40 37 34 32 33 34 30 29 32 27 20 39 15 12 8 9 20 26 27 23 17 9 8 6 10 13 25 17 10 35
44 41 40 38 39 40 36 38 35 34 33 32 33 34 34 34 34 37 37 34 31 30 32 32 27 31 29 17 19 18 33 27 16 21 28 31 15 29 7 7 8 8 20 23 20 28 24
49 49 42 42 37 31 37 39 39 36 36 35 33 35 33 32 31 34 34 31 30 28 31 30 29 31 37 52 22 16 22 21 16 8 18 22 31 12 6 9 6 14 8 8 5 15 10
40 45 46 45 42 35 34 41 40 39 37 37 35 33 31 30 29 30 31 27 28 27 30 29 27 28 28 25 33 40 25 24 18 19 15 16 15 20 10 13 9 3 9 7 4 4 3
43 43 45 53 50 37 36 39 41 41 39 37 37 32 29 26 27 27 26 24 25 26 27 26 21 17 29 16 31 34 40 27 15 17 18 18 10 13 7 8 9 15 3 4 2 37 5
40 41 44 59 62 50 33 38 41 40 39 37 38 34 26 24 24 24 21 19 20 22 22 19 20 13 24 5 7 16 40 30 22 15 7 12 11 4 6 8 8 5 0 3 6 16 39
40 39 41 43 65 47 40 30 39 40 39 38 37 34 25 23 21 20 14 9 7 8 22 22 10 16 13 13 6 9 28 34 25 7 3 2 6 15 14 11 9 3 6 5 4 14 22
41 38 38 42 60 58 46 26 43 38 38 39 37 33 26 22 19 16 10 8 8 9 19 34 52 58 53 47 17 6 23 26 14 9 4 10 14 12 10 9 10 8 8 8 18 26 25
45 42 35 39 37 65 56 38 35 39 39 40 35 33 29 21 20 16 14 7 6 7 9 22 37 45 43 18 15 17 23 19 11 12 10 12 13 12 7 10 9 10 8 19 16 35 34
50 45 37 41 42 48 57 45 40 35 39 33 32 33 30 18 12 14 13 11 6 8 6 12 12 17 25 18 12 34 14 17 4 19 14 10 12 13 8 14 16 11 12 26 41 18 11
51 46 40 40 43 43 53 53 35 38 37 36 34 33 29 20 8 17 15 12 7 5 2 8 11 11 24 21 4 16 31 19 15 11 13 14 5 5 6 17 16 17 33 36 29 10 14
53 47 41 42 43 45 46 59 38 33 36 34 35 34 33 26 25 17 18 16 9 8 13 7 17 14 15 14 6 10 27 22 12 7 1 14 5 7 12 6 7 10 13 10 9 7 7
54 48 41 43 42 41 42 58 40 35 37 36 36 36 36 31 18 23 14 21 8 7 8 10 11 12 9 10 7 4 13 13 10 10 5 7 11 8 12 3 9 11 12 5 7 8 4
56 53 45 43 44 42 44 58 31 29 39 39 39 43 40 44 26 23 19 5 8 10 12 4 8 17 13 10 10 12 13 10 3 9 6 7 9 9 7 11 13 4 11 10 10 7 6
61 55 47 42 44 42 45 50 47 27 37 39 41 45 53 36 35 27 16 4 13 12 7 13 9 10 7 11 10 9 8 17 14 14 9 7 7 4 3 7 9 4 3 7 13 6 8
62 55 46 43 42 43 42 52 55 27 37 39 37 37 51 24 43 31 6 11 9 10 11 5 10 9 15 12 8 10 13 10 7 12 8 9 5 5 5 12 14 9 5 4 6 9 3
61 55 44 44 45 40 42 42 52 30 38 36 27 12 9 36 48 19 9 12 11 32 19 10 8 11 11 14 11 7 9 3 3 6 12 7 8 8 9 8 6 7 6 10 10 7 9
63 54 46 44 44 41 40 49 47 36 43 36 14 7 19 51 15 8 7 11 7 13 11 8 3 7 13 15 9 7 9 4 1 5 8 2 10 7 5 8 9 9 6 7 9 5 6
61 55 47 46 45 42 39 46 21 35 49 42 11 14 39 51 9 7 8 10 7 7 9 8 4 5 6 11 13 8 6 5 4 5 12 7 5 7 7 11 11 13 8 8 10 7 4
61 54 48 46 44 40 41 54 9 34 50 43 11 8 17 31 10 6 9 9 11 15 13 14 8 7 10 8 11 11 7 6 5 9 16 12 6 11 13 11 9 9 9 7 9 7 10
59 52 46 48 44 45 43 64 46 30 55 44 14 7 14 11 19 7 8 12 11 7 11 7 5 9 13 10 8 9 6 7 11 4 8 9 8 9 14 14 13 8 8 8 9 8 4
55 49 47 47 43 41 42 58 49 23 61 50 14 8 4 6 31 20 9 13 18 8 5 6 7 2 14 15 15 15 16 7 8 10 7 7 4 7 14 9 20 15 10 20 14 16 18
52 45 47 46 43 44 42 57 56 25 70 40 43 28 12 9 12 13 10 11 18 13 6 2 10 10 11 4 29 36 23 20 15 12 6 7 11 8 5 1 8 10 5 6 8 6 17
49 45 48 44 42 36 37 51 41 39 69 56 32 17 8 7 16 17 12 13 11 14 10 3 6 10 15 64 70 58 59 48 46 21 9 10 9 6 7 6 4 5 6 18 22 9 15
44 46 44 39 34 38 44 60 36 40 67 64 43 5 7 6 17 13 16 12 13 15 6 5 7 59 31 32 14 13 13 14 12 14 15 12 10 8 9 5 4 7 5 13 11 1 7
42 42 39 37 39 38 47 47 38 48 60 59 66 45 14 8 8 6 10 14 9 8 5 3 12 27 10 8 9 8 6 8 3 5 9 16 15 9 6 10 12 12 11 33 24 2 25
40 39 37 37 35 37 49 47 47 58 59 55 59 52 19 11 8 9 9 14 14 10 9 2 8 8 7 6 8 6 3 10 7 12 4 7 8 9 5 5 10 8 29 21 9 11 55
35 36 34 35 32 45 48 39 45 58 55 52 63 53 24 9 11 8 10 11 15 17 11 13 11 6 8 10 7 6 7 7 7 8 10 9 9 5 6 8 5 13 14 13 12 30 59
36 32 33 30 37 38 41 33 55 56 50 54 53 30 19 19 6 11 19 17 14 20 39 10 16 8 9 9 4 7 6 5 7 4 7 2 10 11 5 7 9 8 4 22 43 65 57
Wind_Direction_850mb
277 279 268 265 271 279 292 302 302 295 286 281 279 277 277 277 278 281 280 282 282 286 291 291 297 301 303 272 250 238 262 313 221 223 222 216 211 183 194 192 193 211 260 272 305 122 142
272 275 273 264 271 264 278 292 300 300 296 286 283 278 279 278 278 278 279 281 281 282 286 288 291 293 294 269 265 254 243 256 245 248 238 220 222 215 216 232 175 237 285 288 162 134 137
262 269 272 272 263 265 264 279 290 299 298 294 285 278 278 278 278 277 276 277 278 279 278 281 287 289 280 256 266 233 204 205 225 263 245 236 223 192 170 293 298 293 305 345 79 137 78
276 277 265 269 269 265 259 265 280 291 298 298 292 280 277 277 278 275 273 275 275 274 273 276 283 290 263 269 251 240 199 202 228 264 263 254 245 245 239 305 341 340 49 23 28 21 342
286 272 263 262 261 269 258 257 268 281 294 298 296 284 278 275 276 274 273 272 272 269 270 273 282 271 268 255 258 220 208 210 240 252 260 253 264 247 250 94 359 12 235 273 155 4 141
291 279 281 255 262 254 257 245 259 270 284 296 298 292 277 271 272 274 276 274 271 267 261 266 248 283 257 244 304 226 213 226 232 248 290 207 185 134 56 83 237 242 323 302 13 19 70
282 283 273 272 256 268 270 244 250 258 274 289 296 294 277 268 268 276 276 286 246 257 236 220 231 239 284 310 165 183 200 200 219 223 166 30 92 222 223 195 173 211 222 69 108 158 58
281 275 278 283 255 267 257 253 242 251 264 281 293 295 279 263 262 264 262 167 73 333 294 262 250 259 262 274 298 189 171 172 162 176 98 19 242 226 193 181 206 217 260 102 76 86 92
276 276 273 274 272 264 269 270 242 245 253 271 286 294 283 263 255 252 220 157 147 339 274 281 232 236 239 230 226 231 178 155 129 163 164 181 220 119 184 257 241 243 203 179 121 88 117
273 273 262 268 275 258 267 262 233 240 246 264 284 293 287 258 256 220 177 146 132 356 18 259 208 238 200 208 253 225 204 174 120 188 159 230 251 236 237 245 170 261 143 132 145 142 165
270 269 261 263 271 276 266 251 274 235 234 258 278 290 283 238 219 198 166 152 140 97 346 189 165 181 176 186 316 191 180 168 166 183 125 234 199 144 238 243 150 225 146 156 170 130 112
269 266 263 260 267 278 261 262 255 227 228 249 268 284 278 257 233 170 166 172 135 62 250 218 149 164 127 201 296 127 176 190 213 155 210 232 277 188 226 313 181 116 110 56 54 75 52
260 260 261 256 262 266 265 256 239 226 230 243 261 276 274 244 204 185 157 159 74 178 300 198 181 138 131 154 237 151 146 159 146 126 263 322 256 245 166 176 12 74 67 3 359 31 194
249 253 258 250 258 262 272 255 244 228 224 240 258 271 266 241 181 185 162 84 190 219 228 143 131 110 157 154 243 183 122 153 110 102 123 175 326 184 184 177 175 87 138 154 206 181 207
244 248 255 249 252 257 267 260 249 239 213 237 254 269 269 220 198 186 178 161 213 215 252 140 63 103 194 216 150 125 137 178 190 172 171 168 290 333 225 112 115 170 45 158 108 59 85
239 244 250 246 248 252 270 265 247 217 216 228 250 277 262 205 190 180 123 240 237 227 323 190 146 174 166 198 139 108 163 191 187 186 155 198 88 358 22 68 32 116 144 59 24 137 158
235 240 246 243 243 249 259 250 251 208 210 220 244 265 232 183 176 184 184 236 267 278 265 207 195 159 166 159 138 132 199 35 230 100 152 132 106 309 38 21 174 18 28 53 107 108 149
231 235 241 238 241 245 256 246 263 195 198 209 207 234 186 168 152 195 194 208 268 281 305 260 183 135 159 158 83 112 138 165 224 160 103 67 116 85 107 353 36 91 96 110 112 192 63
226 231 235 237 237 239 245 234 229 205 197 197 214 231 172 170 162 218 266 249 265 308 306 319 267 182 145 139 100 98 114 24 146 96 159 178 42 91 2 353 3 59 344 100 100 85 170
222 226 231 233 239 236 249 233 288 202 197 195 220 193 164 215 247 189 186 213 205 257 255 261 256 98 100 80 26 149 123 29 64 96 106 91 92 149 175 193 135 86 12 29 101 105 162
218 222 226 229 233 228 247 219 238 211 195 198 231 241 172 187 231 236 223 195 177 241 226 240 282 137 148 115 85 111 122 108 39 76 67 94 88 83 37 83 86 91 94 49 81 123 120
213 221 222 226 232 229 240 247 246 231 193 201 207 231 194 217 183 195 214 217 177 195 273 276 174 66 108 146 165 176 132 117 167 27 67 28 110 59 42 56 95 94 81 85 65 102 74
211 220 222 227 225 232 239 237 236 237 193 201 219 258 251 221 156 167 212 197 204 154 209 265 174 98 76 157 134 132 104 115 133 129 110 94 132 103 131 291 126 40 186 100 100 74 135
210 215 222 225 225 229 240 232 225 219 202 206 210 269 225 256 191 194 189 211 183 190 157 35 66 100 121 115 103 91 84 77 68 39 104 114 91 76 132 40 49 277 43 121 101 52 103
207 212 220 223 227 235 242 215 240 218 205 216 214 268 343 286 199 189 229 189 104 121 68 101 88 129 127 120 76 60 1 37 28 31 36 81 105 73 116 96 287 61 168 151 135 351 128
207 213 217 219 218 236 236 231 231 203 200 217 225 235 295 285 237 236 198 179 148 118 36 80 109 159 153 74 79 106 157 167 129 69 49 67 69 104 100 120 198 231 179 140 101 343 175
208 213 214 216 222 234 228 232 229 191 202 213 222 225 257 261 280 210 202 173 154 116 113 134 133 106 91 69 74 114 158 172 141 142 130 39 30 117 105 121 290 247 152 146 86 238 165
206 213 213 219 234 222 217 225 180 187 203 207 215 218 235 271 322 225 209 170 153 151 135 163 93 13 53 72 114 178 117 198 95 149 164 148 128 145 92 85 277 137 142 152 167 127 159
206 213 212 228 232 220 212 199 178 196 203 209 214 220 227 236 239 89 100 132 146 153 139 132 133 118 148 94 76 118 95 82 142 154 45 96 174 151 148 198 331 317 148 133 152 152 155